Location: Lombard
(41.8800°N, 88.0080°W)
Time: 20:11:43
(UTC-05:00)

A-11 Canister half - Pass Details

Date: 21 April 2024
Orbit: 1514 x 1685 km, 47.2° (Epoch: 27 May)

Event Time Altitude Azimuth Distance (km) Brightness Sun altitude
Rises 20:05:52 0° 286° (WNW) 4,817 14.2 -5.3°
Reaches altitude 10° 20:11:31 10° 260° (W) 3,866 12.1 -6.3°
Maximum altitude 20:15:08 13° 238° (WSW) 3,681 11.5 -6.9°
Drops below altitude 10° 20:18:47 10° 216° (SW) 3,902 11.3 -7.5°
Sets 20:24:38 0° 190° (S) 4,909 11.5 -8.5°
